^^
Saratoga-Weather Station Historical Data
Daily Summary for April 15, 2020 Units:  Metric    English   Both
Daily Weekly Monthly Yearly Custom
  High: Low: Average:
Temperature: 18.9 °C 6.9 °C 12.8 °C
Dew Point: 5.7 °C 1 °C 3.1 °C
Humidity: 67% 35% 53%
Wind Speed: 14.3km/h 0km/h 4km/h
Wind Gust: 20.9km/h - -
Wind- - SW
Pressure: 1021.0 hPa 1014.6 hPa -
Precipitation: 0.0 mm    
Historical Graphs
 
 
Tabular Data for April 15, 2020
Time Temperature Dew Point Pressure Wind Wind Speed Wind Gust Humidity Rainfall Rate (Hourly) solar
00:03 9.9 °C 3 °C 1014.9 hPa Calm   3.2 km/h 62% 0.0 mm 0 W/m2
00:08 9.8 °C 3.1 °C 1014.9 hPa NW 3.2 km/h 4.8 km/h 63% 0.0 mm 0 W/m2
00:13 9.7 °C 2.8 °C 1014.9 hPa WNW 3.2 km/h 4.8 km/h 62% 0.0 mm 0 W/m2
00:18 9.7 °C 2.8 °C 1014.9 hPa West 1.4 km/h 6.4 km/h 62% 0.0 mm 0 W/m2
00:23 9.6 °C 2.7 °C 1014.9 hPa West 4.7 km/h 6.4 km/h 62% 0.0 mm 0 W/m2
00:28 9.6 °C 2.7 °C 1014.9 hPa NNW 4.7 km/h 4.8 km/h 62% 0.0 mm 0 W/m2
00:33 9.6 °C 2.9 °C 1014.9 hPa North 3.2 km/h 3.2 km/h 63% 0.0 mm 0 W/m2
00:38 9.5 °C 2.6 °C 1014.9 hPa NW 6.4 km/h 14.5 km/h 62% 0.0 mm 0 W/m2
00:43 9.5 °C 2.6 °C 1014.9 hPa NNW 3.2 km/h 8 km/h 62% 0.0 mm 0 W/m2
00:48 9.4 °C 2.7 °C 1014.9 hPa NW 6.4 km/h 14.5 km/h 63% 0.0 mm 0 W/m2
00:53 9.4 °C 2.5 °C 1014.6 hPa WNW 4.7 km/h 12.9 km/h 62% 0.0 mm 0 W/m2
00:58 9.3 °C 2.4 °C 1014.6 hPa WNW 1.4 km/h 6.4 km/h 62% 0.0 mm 0 W/m2
01:03 9.2 °C 2.3 °C 1014.6 hPa NW 3.2 km/h 4.8 km/h 62% 0.0 mm 0 W/m2
01:08 9.1 °C 2.2 °C 1014.6 hPa NNW 6.4 km/h 6.4 km/h 62% 0.0 mm 0 W/m2
01:13 9 °C 2.1 °C 1014.6 hPa West 11.1 km/h 16.1 km/h 62% 0.0 mm 0 W/m2
01:18 8.9 °C 2 °C 1014.6 hPa WNW 7.9 km/h 8 km/h 62% 0.0 mm 0 W/m2
01:23 8.9 °C 2 °C 1014.6 hPa WNW 4.7 km/h 11.3 km/h 62% 0.0 mm 0 W/m2
01:28 8.8 °C 1.9 °C 1014.6 hPa WNW 3.2 km/h 6.4 km/h 62% 0.0 mm 0 W/m2
01:33 8.8 °C 1.9 °C 1014.6 hPa West 3.2 km/h 6.4 km/h 62% 0.0 mm 0 W/m2
01:38 8.8 °C 1.9 °C 1014.6 hPa NW 3.2 km/h 4.8 km/h 62% 0.0 mm 0 W/m2
01:43 8.8 °C 1.9 °C 1014.6 hPa NW 3.2 km/h 14.5 km/h 62% 0.0 mm 0 W/m2
01:48 8.7 °C 1.8 °C 1014.6 hPa West 3.2 km/h 11.3 km/h 62% 0.0 mm 0 W/m2
01:54 8.7 °C 1.8 °C 1014.6 hPa West 4.7 km/h 14.5 km/h 62% 0.0 mm 0 W/m2
01:59 8.7 °C 1.8 °C 1014.6 hPa WSW 1.4 km/h 8 km/h 62% 0.0 mm 0 W/m2
02:04 8.6 °C 1.7 °C 1014.6 hPa NNW 1.4 km/h 8 km/h 62% 0.0 mm 0 W/m2
02:09 8.5 °C 1.6 °C 1014.6 hPa WNW 3.2 km/h 8 km/h 62% 0.0 mm 0 W/m2
02:14 8.5 °C 1.6 °C 1014.6 hPa West 4.7 km/h 14.5 km/h 62% 0.0 mm 0 W/m2
02:19 8.5 °C 1.6 °C 1014.6 hPa West 4.7 km/h 9.7 km/h 62% 0.0 mm 0 W/m2
02:24 8.4 °C 1.5 °C 1014.6 hPa NNW 7.9 km/h 14.5 km/h 62% 0.0 mm 0 W/m2
02:29 8.4 °C 1.5 °C 1014.6 hPa NW 6.4 km/h 8 km/h 62% 0.0 mm 0 W/m2
02:34 8.3 °C 1.4 °C 1014.6 hPa WNW 7.9 km/h 14.5 km/h 62% 0.0 mm 0 W/m2
02:39 8.3 °C 1.7 °C 1014.6 hPa NW 4.7 km/h 6.4 km/h 63% 0.0 mm 0 W/m2
02:44 8.3 °C 1.7 °C 1014.6 hPa NNW 4.7 km/h 11.3 km/h 63% 0.0 mm 0 W/m2
02:49 8.2 °C 1.6 °C 1014.6 hPa WNW 3.2 km/h 14.5 km/h 63% 0.0 mm 0 W/m2
02:54 8.2 °C 1.6 °C 1014.6 hPa North 4.7 km/h 6.4 km/h 63% 0.0 mm 0 W/m2
02:59 8.2 °C 1.6 °C 1014.6 hPa West 4.7 km/h 14.5 km/h 63% 0.0 mm 0 W/m2
03:04 8.1 °C 1.7 °C 1014.6 hPa North 4.7 km/h 6.4 km/h 64% 0.0 mm 0 W/m2
03:09 8.1 °C 1.7 °C 1014.6 hPa NNW 1.4 km/h 6.4 km/h 64% 0.0 mm 0 W/m2
03:14 8.1 °C 1.7 °C 1014.6 hPa NW 4.7 km/h 4.8 km/h 64% 0.0 mm 0 W/m2
03:19 8 °C 1.6 °C 1014.6 hPa WNW 4.7 km/h 8 km/h 64% 0.0 mm 0 W/m2
03:24 7.9 °C 1.5 °C 1014.6 hPa NW 1.4 km/h 1.6 km/h 64% 0.0 mm 0 W/m2
03:29 7.9 °C 1.5 °C 1014.6 hPa NW 1.4 km/h 4.8 km/h 64% 0.0 mm 0 W/m2
03:34 7.8 °C 1.4 °C 1014.6 hPa West 3.2 km/h 9.7 km/h 64% 0.0 mm 0 W/m2
03:39 7.8 °C 1.4 °C 1014.6 hPa West 3.2 km/h 11.3 km/h 64% 0.0 mm 0 W/m2
03:44 7.8 °C 1.4 °C 1014.6 hPa NW 3.2 km/h 6.4 km/h 64% 0.0 mm 0 W/m2
03:49 7.8 °C 1.4 °C 1014.6 hPa NNW 6.4 km/h 19.3 km/h 64% 0.0 mm 0 W/m2
03:54 7.8 °C 1.6 °C 1014.6 hPa NW 3.2 km/h 6.4 km/h 65% 0.0 mm 0 W/m2
03:59 7.8 °C 1.4 °C 1014.6 hPa NW 3.2 km/h 12.9 km/h 64% 0.0 mm 0 W/m2
04:04 7.7 °C 1.5 °C 1014.6 hPa NW 3.2 km/h 9.7 km/h 65% 0.0 mm 0 W/m2
04:09 7.7 °C 1.5 °C 1014.6 hPa NW 1.4 km/h 12.9 km/h 65% 0.0 mm 0 W/m2
04:14 7.7 °C 1.5 °C 1014.9 hPa NW 6.4 km/h 12.9 km/h 65% 0.0 mm 0 W/m2
04:20 7.7 °C 1.7 °C 1014.9 hPa NNW 6.4 km/h 8 km/h 66% 0.0 mm 0 W/m2
04:25 7.7 °C 1.7 °C 1014.9 hPa WNW 7.9 km/h 8 km/h 66% 0.0 mm 0 W/m2
04:30 7.6 °C 1.7 °C 1014.9 hPa NNW 4.7 km/h 4.8 km/h 66% 0.0 mm 0 W/m2
04:35 7.6 °C 1.7 °C 1014.9 hPa WSW 4.7 km/h 8 km/h 66% 0.0 mm 0 W/m2
04:40 7.6 °C 1.7 °C 1014.9 hPa NNW 3.2 km/h 14.5 km/h 66% 0.0 mm 0 W/m2
04:45 7.5 °C 1.6 °C 1014.9 hPa East 3.2 km/h 3.2 km/h 66% 0.0 mm 0 W/m2
04:50 7.4 °C 1.5 °C 1014.9 hPa NW 1.4 km/h 8 km/h 66% 0.0 mm 0 W/m2
04:55 7.4 °C 1.5 °C 1014.9 hPa NNE 1.4 km/h 6.4 km/h 66% 0.0 mm 0 W/m2
05:00 7.4 °C 1.7 °C 1014.9 hPa WSW 1.4 km/h 4.8 km/h 67% 0.0 mm 0 W/m2
05:06 7.4 °C 1.5 °C 1014.9 hPa NNW 3.2 km/h 8 km/h 66% 0.0 mm 0 W/m2
05:11 7.4 °C 1.5 °C 1014.9 hPa NNE 3.2 km/h 8 km/h 66% 0.0 mm 0 W/m2
05:16 7.4 °C 1.5 °C 1014.9 hPa Calm   3.2 km/h 66% 0.0 mm 0 W/m2
05:21 7.3 °C 1.4 °C 1014.9 hPa WNW 3.2 km/h 11.3 km/h 66% 0.0 mm 0 W/m2
05:26 7.3 °C 1.4 °C 1015.2 hPa NNE 4.7 km/h 6.4 km/h 66% 0.0 mm 0 W/m2
05:31 7.3 °C 1.4 °C 1015.2 hPa WSW 3.2 km/h 14.5 km/h 66% 0.0 mm 0 W/m2
05:36 7.3 °C 1.4 °C 1015.2 hPa NW 4.7 km/h 8 km/h 66% 0.0 mm 0 W/m2
05:41 7.2 °C 1.3 °C 1015.2 hPa NNW 4.7 km/h 16.1 km/h 66% 0.0 mm 0 W/m2
05:46 7.2 °C 1.3 °C 1015.2 hPa SSW 3.2 km/h 4.8 km/h 66% 0.0 mm 0 W/m2
05:51 7.2 °C 1.3 °C 1015.2 hPa WSW 1.4 km/h 14.5 km/h 66% 0.0 mm 0 W/m2
05:56 7.2 °C 1.3 °C 1015.2 hPa NNW 7.9 km/h 9.7 km/h 66% 0.0 mm 5 W/m2
06:01 7.1 °C 1.2 °C 1015.2 hPa SW 3.2 km/h 14.5 km/h 66% 0.0 mm 7 W/m2
06:06 7.1 °C 1.2 °C 1015.2 hPa West 13 km/h 17.7 km/h 66% 0.0 mm 11 W/m2
06:11 7 °C 1.1 °C 1015.6 hPa NNE 3.2 km/h 14.5 km/h 66% 0.0 mm 14 W/m2
06:16 7 °C 1.1 °C 1015.2 hPa NW 1.4 km/h 16.1 km/h 66% 0.0 mm 18 W/m2
06:21 6.9 °C 1 °C 1015.6 hPa NNW 3.2 km/h 4.8 km/h 66% 0.0 mm 19 W/m2
06:27 6.9 °C 1 °C 1015.6 hPa NE 1.4 km/h 12.9 km/h 66% 0.0 mm 23 W/m2
06:32 6.9 °C 1.2 °C 1015.6 hPa NNW 4.7 km/h 11.3 km/h 67% 0.0 mm 28 W/m2
06:37 6.9 °C 1.2 °C 1015.6 hPa ENE 1.4 km/h 6.4 km/h 67% 0.0 mm 32 W/m2
06:42 6.9 °C 1.2 °C 1015.6 hPa NNW 1.4 km/h 11.3 km/h 67% 0.0 mm 33 W/m2
06:47 6.9 °C 1.2 °C 1015.6 hPa WNW 3.2 km/h 6.4 km/h 67% 0.0 mm 33 W/m2
06:52 6.9 °C 1.2 °C 1015.6 hPa ENE 1.4 km/h 12.9 km/h 67% 0.0 mm 35 W/m2
06:57 6.9 °C 1 °C 1015.6 hPa NW 6.4 km/h 6.4 km/h 66% 0.0 mm 39 W/m2
07:02 6.9 °C 1.2 °C 1015.6 hPa North 4.7 km/h 9.7 km/h 67% 0.0 mm 40 W/m2
07:07 6.9 °C 1.2 °C 1015.9 hPa NNW 4.7 km/h 12.9 km/h 67% 0.0 mm 42 W/m2
07:12 7 °C 1.3 °C 1015.9 hPa North 7.9 km/h 8 km/h 67% 0.0 mm 46 W/m2
07:17 7.1 °C 1.4 °C 1015.9 hPa SSE 1.4 km/h 12.9 km/h 67% 0.0 mm 47 W/m2
07:22 7.1 °C 1.4 °C 1015.9 hPa WNW 4.7 km/h 4.8 km/h 67% 0.0 mm 49 W/m2
07:27 7.2 °C 1.3 °C 1016.3 hPa NE 1.4 km/h 6.4 km/h 66% 0.0 mm 51 W/m2
07:32 7.3 °C 1.6 °C 1016.3 hPa NE 1.4 km/h 1.6 km/h 67% 0.0 mm 53 W/m2
07:37 7.3 °C 1.4 °C 1016.3 hPa North 1.4 km/h 6.4 km/h 66% 0.0 mm 54 W/m2
07:42 7.4 °C 1.7 °C 1016.3 hPa WNW 6.4 km/h 6.4 km/h 67% 0.0 mm 56 W/m2
07:47 7.6 °C 1.7 °C 1016.3 hPa West 4.7 km/h 6.4 km/h 66% 0.0 mm 62 W/m2
07:52 7.7 °C 2 °C 1016.3 hPa WNW 4.7 km/h 14.5 km/h 67% 0.0 mm 232 W/m2
07:57 7.9 °C 1.9 °C 1016.3 hPa Calm   4.8 km/h 66% 0.0 mm 255 W/m2
08:02 8.2 °C 2.2 °C 1016.3 hPa East 1.4 km/h 14.5 km/h 66% 0.0 mm 267 W/m2
08:07 8.4 °C 2.2 °C 1016.3 hPa NNE 4.7 km/h 8 km/h 65% 0.0 mm 279 W/m2
08:12 8.5 °C 2.3 °C 1016.3 hPa WNW 3.2 km/h 9.7 km/h 65% 0.0 mm 292 W/m2
08:17 8.7 °C 2.3 °C 1016.6 hPa North 4.7 km/h 8 km/h 64% 0.0 mm 308 W/m2
08:22 8.9 °C 2.5 °C 1016.6 hPa East 3.2 km/h 14.5 km/h 64% 0.0 mm 322 W/m2
08:27 8.9 °C 2.2 °C 1016.3 hPa WNW 1.4 km/h 6.4 km/h 63% 0.0 mm 334 W/m2
08:32 9 °C 2.6 °C 1016.6 hPa WNW 13 km/h 12.9 km/h 64% 0.0 mm 345 W/m2
08:37 9.1 °C 2.6 °C 1016.6 hPa NE 1.4 km/h 9.7 km/h 64% 0.0 mm 362 W/m2
08:42 9.3 °C 2.8 °C 1016.6 hPa ENE 1.4 km/h 6.4 km/h 64% 0.0 mm 371 W/m2
08:47 9.6 °C 2.9 °C 1016.6 hPa NNW 1.4 km/h 9.7 km/h 63% 0.0 mm 387 W/m2
08:52 9.6 °C 2.7 °C 1016.6 hPa ENE 9.7 km/h 14.5 km/h 62% 0.0 mm 408 W/m2
08:57 9.7 °C 2.8 °C 1016.6 hPa WSW 1.4 km/h 3.2 km/h 62% 0.0 mm 420 W/m2
09:03 9.9 °C 3 °C 1016.9 hPa NW 3.2 km/h 14.5 km/h 62% 0.0 mm 429 W/m2
09:08 10.2 °C 3.2 °C 1016.9 hPa NW 1.4 km/h 4.8 km/h 62% 0.0 mm 441 W/m2
09:13 10.4 °C 3.2 °C 1016.9 hPa North 6.4 km/h 11.3 km/h 61% 0.0 mm 459 W/m2
09:18 10.4 °C 3.2 °C 1016.9 hPa Calm   14.5 km/h 61% 0.0 mm 471 W/m2
09:23 10.6 °C 3.4 °C 1016.9 hPa NW 6.4 km/h 12.9 km/h 61% 0.0 mm 487 W/m2
09:28 10.8 °C 3.3 °C 1016.9 hPa ENE 3.2 km/h 9.7 km/h 60% 0.0 mm 496 W/m2
09:33 11.1 °C 3.6 °C 1016.9 hPa NNW 3.2 km/h 6.4 km/h 60% 0.0 mm 512 W/m2
09:38 11.4 °C 3.4 °C 1016.9 hPa NE 1.4 km/h 6.4 km/h 58% 0.0 mm 522 W/m2
09:43 11.7 °C 3.7 °C 1016.9 hPa WNW 1.4 km/h 8 km/h 58% 0.0 mm 536 W/m2
09:48 11.7 °C 3.5 °C 1016.9 hPa ENE 6.4 km/h 16.1 km/h 57% 0.0 mm 543 W/m2
09:53 11.8 °C 3.8 °C 1016.9 hPa ENE 4.7 km/h 12.9 km/h 58% 0.0 mm 555 W/m2
09:58 12.1 °C 3.8 °C 1016.9 hPa WSW 7.9 km/h 16.1 km/h 57% 0.0 mm 566 W/m2
10:03 12.1 °C 3.6 °C 1016.9 hPa ESE 3.2 km/h 8 km/h 56% 0.0 mm 584 W/m2
10:08 12.3 °C 3.8 °C 1016.9 hPa NW 11.1 km/h 12.9 km/h 56% 0.0 mm 594 W/m2
10:14 12.4 °C 3.9 °C 1016.9 hPa West 4.7 km/h 14.5 km/h 56% 0.0 mm 79 W/m2
10:19 12.6 °C 4.3 °C 1016.9 hPa North 13 km/h 12.9 km/h 57% 0.0 mm 125 W/m2
10:24 12.8 °C 3.7 °C 1016.9 hPa WSW 1.4 km/h 8 km/h 54% 0.0 mm 626 W/m2
10:29 13.1 °C 4 °C 1017.3 hPa NNW 4.7 km/h 9.7 km/h 54% 0.0 mm 635 W/m2
10:34 13.2 °C 3.8 °C 1017.3 hPa East 6.4 km/h 9.7 km/h 53% 0.0 mm 647 W/m2
10:39 13.3 °C 3.9 °C 1017.3 hPa NE 4.7 km/h 11.3 km/h 53% 0.0 mm 656 W/m2
10:44 13.5 °C 3.8 °C 1017.3 hPa NE 14.3 km/h 16.1 km/h 52% 0.0 mm 666 W/m2
10:49 13.7 °C 3.7 °C 1017.6 hPa NNE 7.9 km/h 17.7 km/h 51% 0.0 mm 675 W/m2
10:54 13.7 °C 3.7 °C 1017.6 hPa ENE 7.9 km/h 17.7 km/h 51% 0.0 mm 682 W/m2
10:59 13.7 °C 3.5 °C 1017.6 hPa NE 9.7 km/h 16.1 km/h 50% 0.0 mm 691 W/m2
11:04 13.7 °C 3.7 °C 1017.6 hPa NE 9.7 km/h 14.5 km/h 51% 0.0 mm 703 W/m2
11:09 13.9 °C 3.9 °C 1017.3 hPa East 3.2 km/h 6.4 km/h 51% 0.0 mm 710 W/m2
11:14 14.2 °C 3.9 °C 1017.6 hPa SW 7.9 km/h 20.9 km/h 50% 0.0 mm 722 W/m2
11:19 14.2 °C 3.9 °C 1017.6 hPa NNW 3.2 km/h 9.7 km/h 50% 0.0 mm 729 W/m2
11:24 14.2 °C 3.9 °C 1017.6 hPa NNW 4.7 km/h 19.3 km/h 50% 0.0 mm 735 W/m2
11:29 14.3 °C 4 °C 1017.6 hPa ENE 3.2 km/h 9.7 km/h 50% 0.0 mm 742 W/m2
11:34 14.5 °C 3.9 °C 1017.6 hPa East 1.4 km/h 14.5 km/h 49% 0.0 mm 751 W/m2
11:39 14.7 °C 4.4 °C 1017.6 hPa WNW 9.7 km/h 17.7 km/h 50% 0.0 mm 756 W/m2
11:44 14.8 °C 4.2 °C 1017.6 hPa ESE 1.4 km/h 8 km/h 49% 0.0 mm 758 W/m2
11:49 14.8 °C 4.2 °C 1017.6 hPa NW 11.1 km/h 11.3 km/h 49% 0.0 mm 770 W/m2
11:54 15 °C 4.4 °C 1018.0 hPa NE 4.7 km/h 12.9 km/h 49% 0.0 mm 777 W/m2
12:00 15.1 °C 4.8 °C 1018.0 hPa ENE 11.1 km/h 17.7 km/h 50% 0.0 mm 786 W/m2
12:05 15.1 °C 4.2 °C 1018.0 hPa NE 4.7 km/h 8 km/h 48% 0.0 mm 788 W/m2
12:10 15.2 °C 4.3 °C 1018.0 hPa NW 7.9 km/h 9.7 km/h 48% 0.0 mm 796 W/m2
12:15 15.3 °C 4.4 °C 1018.0 hPa SSW 4.7 km/h 9.7 km/h 48% 0.0 mm 800 W/m2
12:20 15.3 °C 4.4 °C 1018.0 hPa NE 1.4 km/h 6.4 km/h 48% 0.0 mm 802 W/m2
12:25 15.4 °C 4.7 °C 1018.0 hPa NNW 7.9 km/h 14.5 km/h 49% 0.0 mm 809 W/m2
12:30 15.5 °C 4.8 °C 1018.0 hPa SW 3.2 km/h 6.4 km/h 49% 0.0 mm 812 W/m2
12:35 15.5 °C 4.8 °C 1018.0 hPa East 3.2 km/h 9.7 km/h 49% 0.0 mm 816 W/m2
12:40 15.6 °C 4.6 °C 1018.0 hPa East 13 km/h 16.1 km/h 48% 0.0 mm 817 W/m2
12:45 15.7 °C 4.4 °C 1018.0 hPa NE 14.3 km/h 14.5 km/h 47% 0.0 mm 821 W/m2
12:51 15.8 °C 4.5 °C 1018.0 hPa ENE 3.2 km/h 16.1 km/h 47% 0.0 mm 821 W/m2
12:56 16 °C 5 °C 1018.0 hPa ENE 7.9 km/h 11.3 km/h 48% 0.0 mm 824 W/m2
13:01 16.1 °C 4.8 °C 1018.0 hPa SSW 4.7 km/h 9.7 km/h 47% 0.0 mm 828 W/m2
13:06 16.3 °C 5.3 °C 1018.0 hPa WNW 1.4 km/h 11.3 km/h 48% 0.0 mm 830 W/m2
13:11 16.3 °C 4.3 °C 1018.3 hPa SE 4.7 km/h 14.5 km/h 45% 0.0 mm 831 W/m2
13:16 16.4 °C 5.7 °C 1018.0 hPa NW 3.2 km/h 3.2 km/h 49% 0.0 mm 831 W/m2
13:21 16.6 °C 5.5 °C 1018.0 hPa ENE 1.4 km/h 12.9 km/h 48% 0.0 mm 831 W/m2
13:26 16.8 °C 5.1 °C 1018.3 hPa East 6.4 km/h 12.9 km/h 46% 0.0 mm 830 W/m2
13:31 16.9 °C 4.9 °C 1018.3 hPa ESE 6.4 km/h 6.4 km/h 45% 0.0 mm 840 W/m2
13:36 16.9 °C 4.2 °C 1018.0 hPa South 3.2 km/h 6.4 km/h 43% 0.0 mm 833 W/m2
13:41 16.7 °C 4.7 °C 1018.3 hPa East 6.4 km/h 11.3 km/h 45% 0.0 mm 831 W/m2
13:46 16.7 °C 4.4 °C 1018.3 hPa South 1.4 km/h 8 km/h 44% 0.0 mm 831 W/m2
13:51 16.9 °C 4.9 °C 1018.3 hPa North 7.9 km/h 16.1 km/h 45% 0.0 mm 837 W/m2
13:56 17 °C 4.7 °C 1018.3 hPa NNW 3.2 km/h 12.9 km/h 44% 0.0 mm 838 W/m2
14:01 17.2 °C 4.8 °C 1018.3 hPa NW 6.4 km/h 9.7 km/h 44% 0.0 mm 831 W/m2
14:06 17.2 °C 4.2 °C 1018.3 hPa ESE 1.4 km/h 6.4 km/h 42% 0.0 mm 831 W/m2
14:11 17.2 °C 4.5 °C 1018.3 hPa NW 6.4 km/h 6.4 km/h 43% 0.0 mm 828 W/m2
14:16 17.3 °C 4.9 °C 1018.3 hPa NNE 3.2 km/h 3.2 km/h 44% 0.0 mm 833 W/m2
14:21 17.5 °C 4.4 °C 1018.3 hPa WSW 4.7 km/h 8 km/h 42% 0.0 mm 821 W/m2
14:26 17.2 °C 3.8 °C 1018.3 hPa WNW 4.7 km/h 11.3 km/h 41% 0.0 mm 812 W/m2
14:31 17 °C 4 °C 1018.3 hPa NNW 4.7 km/h 16.1 km/h 42% 0.0 mm 810 W/m2
14:36 17.1 °C 4.1 °C 1018.3 hPa North 3.2 km/h 12.9 km/h 42% 0.0 mm 812 W/m2
14:41 17 °C 3.6 °C 1018.3 hPa NW 6.4 km/h 16.1 km/h 41% 0.0 mm 835 W/m2
14:46 17.1 °C 4.1 °C 1018.3 hPa NE 6.4 km/h 12.9 km/h 42% 0.0 mm 810 W/m2
14:51 17.2 °C 4.8 °C 1018.3 hPa WSW 1.4 km/h 4.8 km/h 44% 0.0 mm 796 W/m2
14:57 17.3 °C 3.9 °C 1018.3 hPa NW 4.7 km/h 12.9 km/h 41% 0.0 mm 789 W/m2
15:02 17.4 °C 3.7 °C 1018.3 hPa NNW 9.7 km/h 9.7 km/h 40% 0.0 mm 791 W/m2
15:07 17.4 °C 4 °C 1018.3 hPa South 3.2 km/h 4.8 km/h 41% 0.0 mm 784 W/m2
15:12 17.4 °C 3.7 °C 1018.3 hPa West 6.4 km/h 14.5 km/h 40% 0.0 mm 773 W/m2
15:17 17.6 °C 4.2 °C 1018.3 hPa NNW 4.7 km/h 6.4 km/h 41% 0.0 mm 770 W/m2
15:22 17.6 °C 3.5 °C 1018.3 hPa South 4.7 km/h 14.5 km/h 39% 0.0 mm 765 W/m2
15:27 17.6 °C 4.2 °C 1018.3 hPa NNW 9.7 km/h 12.9 km/h 41% 0.0 mm 756 W/m2
15:32 17.6 °C 4.5 °C 1018.3 hPa West 4.7 km/h 9.7 km/h 42% 0.0 mm 752 W/m2
15:37 17.6 °C 4.2 °C 1018.3 hPa NW 3.2 km/h 4.8 km/h 41% 0.0 mm 737 W/m2
15:42 17.8 °C 4.4 °C 1018.3 hPa NW 4.7 km/h 8 km/h 41% 0.0 mm 728 W/m2
15:47 17.7 °C 4.3 °C 1018.3 hPa WNW 6.4 km/h 14.5 km/h 41% 0.0 mm 722 W/m2
15:52 17.6 °C 4.5 °C 1018.3 hPa NE 6.4 km/h 8 km/h 42% 0.0 mm 714 W/m2
15:57 17.9 °C 4.8 °C 1018.3 hPa ESE 9.7 km/h 12.9 km/h 42% 0.0 mm 701 W/m2
16:02 17.9 °C 4.1 °C 1018.3 hPa ENE 3.2 km/h 11.3 km/h 40% 0.0 mm 694 W/m2
16:07 18.1 °C 4.3 °C 1018.3 hPa West 9.7 km/h 17.7 km/h 40% 0.0 mm 684 W/m2
16:12 18.1 °C 4.3 °C 1018.3 hPa NNE 1.4 km/h 4.8 km/h 40% 0.0 mm 668 W/m2
16:17 18.1 °C 3.9 °C 1018.3 hPa Calm   14.5 km/h 39% 0.0 mm 659 W/m2
16:22 18.2 °C 4.4 °C 1018.3 hPa WNW 4.7 km/h 12.9 km/h 40% 0.0 mm 656 W/m2
16:27 18.4 °C 4.9 °C 1018.3 hPa NNE 3.2 km/h 14.5 km/h 41% 0.0 mm 642 W/m2
16:32 18.4 °C 3.8 °C 1018.3 hPa WNW 4.7 km/h 6.4 km/h 38% 0.0 mm 633 W/m2
16:38 18.3 °C 4.1 °C 1018.3 hPa SE 1.4 km/h 11.3 km/h 39% 0.0 mm 622 W/m2
16:43 18.4 °C 4.6 °C 1018.3 hPa ENE 7.9 km/h 14.5 km/h 40% 0.0 mm 608 W/m2
16:48 18.3 °C 4.5 °C 1018.3 hPa East 3.2 km/h 6.4 km/h 40% 0.0 mm 596 W/m2
16:53 18.4 °C 4.2 °C 1018.3 hPa ESE 4.7 km/h 14.5 km/h 39% 0.0 mm 589 W/m2
16:58 18.3 °C 3.7 °C 1018.3 hPa ENE 6.4 km/h 9.7 km/h 38% 0.0 mm 578 W/m2
17:03 18.2 °C 3.3 °C 1018.3 hPa ESE 6.4 km/h 11.3 km/h 37% 0.0 mm 570 W/m2
17:08 18.2 °C 4 °C 1018.3 hPa North 4.7 km/h 6.4 km/h 39% 0.0 mm 555 W/m2
17:13 18.7 °C 3.7 °C 1018.3 hPa North 1.4 km/h 8 km/h 37% 0.0 mm 545 W/m2
17:18 18.8 °C 3.4 °C 1018.3 hPa ENE 1.4 km/h 1.6 km/h 36% 0.0 mm 536 W/m2
17:23 18.8 °C 3.4 °C 1018.3 hPa ENE 4.7 km/h 8 km/h 36% 0.0 mm 520 W/m2
17:28 18.8 °C 3.8 °C 1018.3 hPa ENE 3.2 km/h 9.7 km/h 37% 0.0 mm 512 W/m2
17:33 18.6 °C 3.2 °C 1018.3 hPa ESE 6.4 km/h 14.5 km/h 36% 0.0 mm 503 W/m2
17:38 18.6 °C 4 °C 1018.3 hPa Calm   3.2 km/h 38% 0.0 mm 483 W/m2
17:43 18.7 °C 2.9 °C 1018.3 hPa NNE 3.2 km/h 6.4 km/h 35% 0.0 mm 471 W/m2
17:48 18.7 °C 3.3 °C 1018.3 hPa Calm   1.6 km/h 36% 0.0 mm 457 W/m2
17:53 18.8 °C 4.2 °C 1018.6 hPa East 1.4 km/h 3.2 km/h 38% 0.0 mm 448 W/m2
17:58 18.9 °C 3.5 °C 1018.6 hPa East 4.7 km/h 6.4 km/h 36% 0.0 mm 436 W/m2
18:03 18.8 °C 3.4 °C 1018.6 hPa North 1.4 km/h 11.3 km/h 36% 0.0 mm 422 W/m2
18:08 18.8 °C 3 °C 1018.6 hPa NNW 3.2 km/h 8 km/h 35% 0.0 mm 408 W/m2
18:13 18.7 °C 4.1 °C 1018.6 hPa SE 4.7 km/h 6.4 km/h 38% 0.0 mm 397 W/m2
18:18 18.7 °C 3.7 °C 1018.6 hPa SSE 1.4 km/h 1.6 km/h 37% 0.0 mm 383 W/m2
18:23 18.8 °C 3.4 °C 1018.6 hPa East 3.2 km/h 9.7 km/h 36% 0.0 mm 366 W/m2
18:28 18.6 °C 3.2 °C 1018.6 hPa East 3.2 km/h 11.3 km/h 36% 0.0 mm 352 W/m2
18:33 18.6 °C 3.6 °C 1018.6 hPa East 6.4 km/h 11.3 km/h 37% 0.0 mm 339 W/m2
18:38 18.3 °C 3.7 °C 1018.6 hPa SE 3.2 km/h 6.4 km/h 38% 0.0 mm 323 W/m2
18:43 18.3 °C 3.7 °C 1018.6 hPa North 3.2 km/h 4.8 km/h 38% 0.0 mm 315 W/m2
18:48 18.6 °C 4.7 °C 1018.6 hPa Calm   8 km/h 40% 0.0 mm 299 W/m2
18:53 18.6 °C 3.6 °C 1018.6 hPa East 6.4 km/h 6.4 km/h 37% 0.0 mm 288 W/m2
18:58 18.7 °C 4.1 °C 1018.6 hPa NNW 4.7 km/h 6.4 km/h 38% 0.0 mm 276 W/m2
19:03 18.6 °C 3.2 °C 1019.0 hPa SSE 6.4 km/h 11.3 km/h 36% 0.0 mm 258 W/m2
19:08 18.4 °C 3.1 °C 1019.0 hPa SE 1.4 km/h 6.4 km/h 36% 0.0 mm 250 W/m2
19:13 18.5 °C 2.7 °C 1019.0 hPa NW 1.4 km/h 9.7 km/h 35% 0.0 mm 232 W/m2
19:18 18.6 °C 3.2 °C 1018.6 hPa NNW 3.2 km/h 6.4 km/h 36% 0.0 mm 220 W/m2
19:23 18.6 °C 3.2 °C 1018.6 hPa ENE 6.4 km/h 6.4 km/h 36% 0.0 mm 204 W/m2
19:28 18.5 °C 3.1 °C 1018.6 hPa WNW 3.2 km/h 6.4 km/h 36% 0.0 mm 190 W/m2
19:33 18.4 °C 3.4 °C 1018.6 hPa ESE 1.4 km/h 4.8 km/h 37% 0.0 mm 174 W/m2
19:39 18.3 °C 3.7 °C 1018.6 hPa Calm   3.2 km/h 38% 0.0 mm 160 W/m2
19:44 18.3 °C 4.1 °C 1018.6 hPa East 1.4 km/h 3.2 km/h 39% 0.0 mm 144 W/m2
19:49 18.3 °C 3.7 °C 1018.6 hPa NW 6.4 km/h 6.4 km/h 38% 0.0 mm 130 W/m2
19:54 18.3 °C 3.7 °C 1019.0 hPa West 6.4 km/h 6.4 km/h 38% 0.0 mm 116 W/m2
19:59 18.1 °C 3.6 °C 1019.0 hPa NW 6.4 km/h 8 km/h 38% 0.0 mm 102 W/m2
20:04 17.8 °C 3.7 °C 1019.0 hPa WNW 3.2 km/h 8 km/h 39% 0.0 mm 91 W/m2
20:09 17.7 °C 3.6 °C 1019.0 hPa East 3.2 km/h 3.2 km/h 39% 0.0 mm 79 W/m2
20:14 17.6 °C 3.5 °C 1019.0 hPa North 3.2 km/h 4.8 km/h 39% 0.0 mm 67 W/m2
20:19 17.7 °C 3.6 °C 1019.0 hPa West 4.7 km/h 12.9 km/h 39% 0.0 mm 58 W/m2
20:24 17.5 °C 3.7 °C 1019.0 hPa North 3.2 km/h 4.8 km/h 40% 0.0 mm 49 W/m2
20:29 17.2 °C 3.5 °C 1019.0 hPa WNW 4.7 km/h 12.9 km/h 40% 0.0 mm 40 W/m2
20:34 16.9 °C 3.6 °C 1019.0 hPa NW 1.4 km/h 4.8 km/h 41% 0.0 mm 32 W/m2
20:39 16.6 °C 3.3 °C 1019.0 hPa NNW 7.9 km/h 8 km/h 41% 0.0 mm 25 W/m2
20:44 16.3 °C 3.4 °C 1019.3 hPa North 6.4 km/h 9.7 km/h 42% 0.0 mm 21 W/m2
20:50 16.1 °C 3.5 °C 1019.3 hPa West 1.4 km/h 4.8 km/h 43% 0.0 mm 18 W/m2
20:55 16 °C 3.4 °C 1019.3 hPa WNW 3.2 km/h 8 km/h 43% 0.0 mm 14 W/m2
21:00 15.8 °C 3.6 °C 1019.3 hPa NNW 3.2 km/h 3.2 km/h 44% 0.0 mm 11 W/m2
21:05 15.6 °C 3.4 °C 1019.3 hPa NW 3.2 km/h 4.8 km/h 44% 0.0 mm 9 W/m2
21:10 15.4 °C 3.8 °C 1019.3 hPa WSW 1.4 km/h 3.2 km/h 46% 0.0 mm 7 W/m2
21:15 15.2 °C 3.7 °C 1019.6 hPa NE 3.2 km/h 8 km/h 46% 0.0 mm 5 W/m2
21:20 15 °C 3.5 °C 1019.6 hPa Calm   3.2 km/h 46% 0.0 mm 0 W/m2
21:25 14.8 °C 3.9 °C 1019.6 hPa Calm   3.2 km/h 48% 0.0 mm 0 W/m2
21:30 14.7 °C 4.1 °C 1019.6 hPa SW 3.2 km/h 3.2 km/h 49% 0.0 mm 0 W/m2
21:35 14.5 °C 3.9 °C 1019.6 hPa Calm   3.2 km/h 49% 0.0 mm 0 W/m2
21:40 14.3 °C 3.7 °C 1020.0 hPa Calm   1.6 km/h 49% 0.0 mm 0 W/m2
21:45 14.2 °C 3.6 °C 1020.0 hPa Calm   3.2 km/h 49% 0.0 mm 0 W/m2
21:50 13.9 °C 3.9 °C 1020.0 hPa WNW 1.4 km/h 4.8 km/h 51% 0.0 mm 0 W/m2
21:55 13.8 °C 3.6 °C 1020.3 hPa Calm   3.2 km/h 50% 0.0 mm 0 W/m2
22:00 13.8 °C 3.8 °C 1020.3 hPa Calm   1.6 km/h 51% 0.0 mm 0 W/m2
22:05 13.6 °C 4.2 °C 1020.3 hPa West 1.4 km/h 1.6 km/h 53% 0.0 mm 0 W/m2
22:10 13.3 °C 3.6 °C 1020.3 hPa WNW 1.4 km/h 6.4 km/h 52% 0.0 mm 0 W/m2
22:15 13.2 °C 3.6 °C 1020.3 hPa NNW 3.2 km/h 3.2 km/h 52% 0.0 mm 0 W/m2
22:20 13.1 °C 3.5 °C 1020.7 hPa West 3.2 km/h 6.4 km/h 52% 0.0 mm 0 W/m2
22:25 12.9 °C 3.3 °C 1020.7 hPa NW 3.2 km/h 3.2 km/h 52% 0.0 mm 0 W/m2
22:30 12.8 °C 3.2 °C 1020.7 hPa NW 1.4 km/h 6.4 km/h 52% 0.0 mm 0 W/m2
22:35 12.7 °C 3.1 °C 1020.7 hPa WNW 1.4 km/h 4.8 km/h 52% 0.0 mm 0 W/m2
22:40 12.6 °C 3.3 °C 1020.7 hPa West 1.4 km/h 3.2 km/h 53% 0.0 mm 0 W/m2
22:45 12.5 °C 3.4 °C 1020.7 hPa West 1.4 km/h 4.8 km/h 54% 0.0 mm 0 W/m2
22:50 12.2 °C 3.2 °C 1020.7 hPa ESE 1.4 km/h 3.2 km/h 54% 0.0 mm 0 W/m2
22:55 12 °C 3.5 °C 1020.7 hPa Calm   1.6 km/h 56% 0.0 mm 0 W/m2
23:00 11.8 °C 3.3 °C 1021.0 hPa SSW 3.2 km/h 3.2 km/h 56% 0.0 mm 0 W/m2
23:05 11.6 °C 3.1 °C 1020.7 hPa SSW 3.2 km/h 3.2 km/h 56% 0.0 mm 0 W/m2
23:10 11.3 °C 3.1 °C 1021.0 hPa SSW 1.4 km/h 3.2 km/h 57% 0.0 mm 0 W/m2
23:15 11.2 °C 3 °C 1021.0 hPa WSW 3.2 km/h 3.2 km/h 57% 0.0 mm 0 W/m2
23:20 11 °C 3.1 °C 1021.0 hPa South 1.4 km/h 3.2 km/h 58% 0.0 mm 0 W/m2
23:25 10.8 °C 3.1 °C 1021.0 hPa South 1.4 km/h 1.6 km/h 59% 0.0 mm 0 W/m2
23:30 10.7 °C 2.3 °C 1021.0 hPa West 1.4 km/h 11.3 km/h 56% 0.0 mm 0 W/m2
23:35 10.9 °C 2 °C 1021.0 hPa WNW 7.9 km/h 8 km/h 54% 0.0 mm 0 W/m2
23:40 11.2 °C 2 °C 1021.0 hPa WSW 1.4 km/h 4.8 km/h 53% 0.0 mm 0 W/m2
23:45 11.3 °C 2.1 °C 1021.0 hPa SW 1.4 km/h 3.2 km/h 53% 0.0 mm 0 W/m2
23:50 11.2 °C 2.5 °C 1021.0 hPa Calm   6.4 km/h 55% 0.0 mm 0 W/m2
23:55 10.9 °C 2.5 °C 1021.0 hPa SSW 1.4 km/h 3.2 km/h 56% 0.0 mm 0 W/m2
Juneau County Weather
Compliments of Weather Underground - 4 mb